Date,TemperatureHighF,TemperatureAvgF,TemperatureLowF,DewpointHighF,DewpointAvgF,DewpointLowF,HumidityHigh,HumidityAvg,HumidityLow,PressureMaxIn,PressureMinIn,WindSpeedMaxMPH,WindSpeedAvgMPH,GustSpeedMaxMPH,PrecipitationSumIn
2013-3-1,62,56,50,41,38,35,59,53,46,30.00,29.89,10,2,10,0.00
2013-3-2,57,49,42,38,34,29,72,56,41,30.03,29.91,18,2,18,0.00
2013-3-3,49,44,38,32,30,28,70,59,50,30.14,29.98,21,2,21,0.00
2013-3-4,59,47,35,40,34,28,75,61,37,30.23,30.11,12,1,12,0.00
2013-3-5,73,59,44,55,46,37,80,64,39,30.19,29.89,10,1,10,0.00
2013-3-6,63,54,46,57,38,31,83,56,37,30.13,29.86,21,1,21,0.00
2013-3-7,59,50,41,44,38,30,78,64,55,30.23,30.13,9,2,9,0.00
2013-3-8,65,53,44,51,44,-100,83,72,55,30.24,30.16,13,2,13,0.00
2013-3-9,68,58,46,52,47,41,82,68,54,30.29,30.17,16,-1,16,0.00
2013-3-10,73,63,54,62,54,-100,87,76,61,30.22,30.14,5,0,5,0.00
2013-3-11,74,64,55,62,57,-100,88,78,64,30.15,29.91,4,0,4,0.00
2013-3-12,72,65,57,67,60,48,90,82,68,30.02,29.84,13,1,13,0.00
2013-3-13,68,58,51,48,42,38,79,57,38,30.17,30.01,12,2,12,0.00
2013-3-14,56,51,45,39,35,30,75,55,48,30.31,30.15,16,2,16,0.00
2013-3-15,65,53,41,47,40,35,80,64,44,30.29,30.12,6,0,6,0.00
2013-3-16,78,61,47,54,47,41,83,62,41,30.17,29.99,13,1,13,0.00
2013-3-17,75,62,50,57,50,42,81,67,45,30.13,30.00,8,0,8,0.00
2013-3-18,79,67,61,66,60,56,87,78,60,30.06,29.86,5,0,5,0.00
2013-3-19,79,67,61,64,60,56,88,77,58,30.01,29.88,15,1,15,0.04
2013-3-20,65,61,54,58,54,49,86,80,73,30.01,29.83,21,-1,21,0.10
2013-3-21,66,55,47,49,41,36,86,62,34,29.95,29.85,13,-2,13,0.00
2013-3-22,65,57,48,50,44,38,74,62,50,30.06,29.92,10,1,10,0.00
2013-3-23,68,61,56,64,57,50,91,86,74,30.01,29.79,8,0,8,2.12
2013-3-24,80,70,62,72,66,60,92,87,74,29.82,29.53,9,-2,9,0.55
2013-3-25,67,60,52,62,42,32,85,54,32,30.03,29.62,15,3,15,0.00
2013-3-26,56,50,43,33,30,26,58,47,38,30.25,30.02,14,3,14,0.00
2013-3-27,57,48,41,40,34,29,74,58,47,30.31,30.21,12,1,12,0.00
2013-3-28,64,52,42,44,39,35,77,65,42,30.31,30.22,13,1,13,0.00
2013-3-29,68,56,45,47,43,39,81,65,43,30.34,30.22,5,0,5,0.00
2013-3-30,74,60,48,56,49,42,82,68,41,30.27,30.12,6,0,6,0.02
2013-3-31,80,66,53,59,53,46,80,65,47,30.15,29.97,7,0,7,0.00